Location: Carri�res
(48.9069°N, 2.1792°E)
Time: 17:31:36
(UTC+00:00)

N. Korean satellite - Pass Details

Date: 20 April 2021
Orbit: 450 x 501 km, 97.2° (Epoch: 15 May)

Event Time Altitude Azimuth Distance (km) Brightness Sun altitude
Rises 04:05:32 0° 32° (NNE) 2,571 11.4 -7.6°
Reaches altitude 10° 04:08:54 10° 66° (ENE) 1,668 11.1 -7.1°
Maximum altitude 04:10:13 12° 88° (E) 1,559 10.3 -6.9°
Drops below altitude 10° 04:11:31 10° 110° (ESE) 1,652 10.0 -6.7°
Sets 04:14:48 0° 144° (SE) 2,507 10.3 -6.3°
